Weather Roundup
Issued by NWS

Home | Current Version | Previous Version | Text Only | Print | Product List | Glossary On
Versions: 1 2 3 4 5 6 7 8 9 10 11 12 13 14 15 16 17 18 19 20 21 22 23 24 25 26 27 28 29 30 31 32 33 34 35 36 37 38 39 40 41 42 43 44 45 46 47 48 49 50
347
NZUS93 KARX 300110
HRRWXR

CURRENT HOURLY OBSERVATIONS ACROSS
MUCH OF THE UPPER MISSISSIPPI VALLEY
NATIONAL WEATHER SERVICE LA CROSSE WI
800 PM CDT FRI APR 29 2016


...SOUTHEAST MINNESOTA...


CITY           SKY/WX    TMP DP  RH WIND       PRES   REMARKS
ROCHESTER      CLOUDY    48  40  73 E7        30.12S
ROCHESTER/MAYO CLOUDY    50  39  66 E5        30.12S
WINONA         CLOUDY    52  41  66 CALM      30.13F
AUSTIN         CLOUDY    48  39  71 E8        30.09F
ALBERT LEA     CLOUDY    48  39  71 E8        30.09F
DODGE CENTER   CLOUDY    48  39  71 E8        30.11S
PRESTON        CLOUDY    47  38  70 E5        30.12S
OWATONNA       PTCLDY    48  39  71 E6        30.11S
FARIBAULT      CLOUDY    52  41  66 E6        30.11S
$$

...ELSEWHERE IN MINNESOTA...


CITY           SKY/WX    TMP DP  RH WIND       PRES   REMARKS
MINNEAPOLIS    PTCLDY    56  37  49 SE8       30.10S
INTNL FALLS    CLOUDY    53  30  41 E6        30.21R
DULUTH         PTCLDY    45  28  51 E9        30.20R
RED WING       CLEAR     54  39  58 CALM      30.11S
REDWOOD FALLS  CLOUDY    54  37  52 NE3       30.09F
MANKATO        CLOUDY    52  39  62 E8        30.10S
WORTHINGTON    CLOUDY    47  41  80 E9        30.06F
FAIRMONT       CLOUDY    48  37  66 E10       30.07F
$$

...SOUTHWEST WISCONSIN...


CITY           SKY/WX    TMP DP  RH WIND       PRES   REMARKS
LA CROSSE      CLOUDY    52  40  63 CALM      30.12F
PRAIRIE DU CHI CLOUDY    50  37  61 CALM      30.10F
BOSCOBEL       CLOUDY    51  39  63 CALM      30.12S
LONE ROCK      CLOUDY    49  41  74 E3        30.12S
PLATTEVILLE    CLOUDY    47  42  81 E5        30.12S
FORT MC COY    CLOUDY    51  43  74 CALM      30.12F
CAMP DOUGLAS   CLOUDY    51  49  95 E2        30.11S
MAUSTON-NEW LI CLOUDY    53  39  57 CALM      30.11
VIROQUA        MOCLDY    47  38  68 CALM      30.11S
WIS DELLS      CLEAR     47  37  67 CALM      30.11F
$$

...ELSEWHERE IN WISCONSIN...


CITY           SKY/WX    TMP DP  RH WIND       PRES   REMARKS
MILWAUKEE      PTCLDY    41  33  73 NE6       30.14S
MADISON        PTCLDY    49  37  63 CALM      30.11R
GREEN BAY      CLEAR     48  30  49 NE9       30.16R
EAU CLAIRE     CLEAR     54  38  54 SE5       30.11S
BLACK RVR FLS  CLOUDY    50  42  74 CALM      30.12F
MEDFORD        CLEAR     50  38  64 CALM      30.13R
WAUSAU         PTCLDY    53  33  46 SE7       30.12R
WIS RAPIDS     CLOUDY    53  34  48 E6        30.14R
MARSHFIELD     MOCLDY    52  35  52 E3        30.11S
RICE LAKE      CLOUDY    56  32  39 NE13      30.14R
$$

...NORTHEAST IOWA...


CITY           SKY/WX    TMP DP  RH WIND       PRES   REMARKS
WATERLOO       CLOUDY    48  40  73 E10       30.07F
DUBUQUE        CLOUDY    47  40  76 NE7       30.09
DECORAH        CLOUDY    48  39  71 E6        30.09F
MASON CITY     CLOUDY    47  40  76 E10       30.08F
CHARLES CITY   CLOUDY    48  43  81 NE5       30.08F
OELWEIN        CLOUDY    48  41  76 E9        30.08F
$$

...ELSEWHERE IN IOWA...


CITY           SKY/WX    TMP DP  RH WIND       PRES   REMARKS
DES MOINES     CLOUDY    50  40  68 E10       30.03S
IOWA CITY      CLOUDY    49  42  77 E9        30.09S
FORT DODGE     CLOUDY    46  37  71 E12       30.06S
MARSHALLTOWN   CLOUDY    47  41  80 E12       30.05S
CEDAR RAPIDS   CLOUDY    48  43  82 E10       30.07R
$$

...NORTHERN ILLINOIS...


CITY           SKY/WX    TMP DP  RH WIND       PRES   REMARKS
CHICAGO-OHARE  CLOUDY    44  38  79 NE9       30.14R
CHICAGO-MIDWAY CLOUDY    45  38  76 N10       30.14R
MOLINE         CLOUDY    50  41  71 E10       30.08S
ROCKFORD       CLOUDY    48  39  71 E3        30.15R
PEORIA         CLOUDY    51  43  74 NE15G21   30.07S
$$

NOTE: "FAIR" INDICATES FEW OR NO CLOUDS BELOW 12,000 FEET WITH NO
SIGNIFICANT WEATHER AND/OR OBSTRUCTIONS TO VISIBILITY. WIND
SPEEDS ARE IN MILES-PER-HOUR.




USA.gov is the U.S. government's official web portal to all federal, state and local government web resources and services.